User: anonymous   Login
Location: French Creek State Gamelands
(40.1750°N, 75.7969°W)
Time: 11:21:23
(UTC-05:00)
Language:

ISS - Orbit

View from above orbital plane
View from above orbital plane
View from above satellite
View from above satellite

Ground track
Ground track

The orbit data is extracted from the following two-line orbital elements,

1 25544U 98067A   17055.37602340  .00016717  00000-0  10270-3 0  9022
2 25544  51.6411 240.6667 0006404 232.3480 127.7092 15.54446752  4204
Epoch (UTC): 24 February 2017 09:01:28
Eccentricity: 0.0006404
inclination: 51.6411°
perigee height: 399 km
apogee height: 408 km
right ascension of ascending node: 240.6667°
argument of perigee: 232.3480°
revolutions per day: 15.54446752
mean anomaly at epoch: 127.7092°
orbit number at epoch: 420

The dashed part of the orbit path shows where the satellite is in the earth's shadow,  

DLR